KINEIS-1C

Last updated on Thu Oct 23 2025 00:02:49 GMT+0000 (Coordinated Universal Time)

1 60081U 24114C 25295.49680669 .00001612 00000+0 22014-3 0 9999 2 60081 98.0053 315.4707 0000822 138.7980 221.3294 14.79995216 72215
UTC large
Height (km)
Speed (km/s)
/
Latitude / Longitude
Inclination (degrees)
Orbital Period (minutes)
Azimuth
Elevation
Range (km)
Doppler Factor

Next 0 passes for location: London (51.5072 / 0.1276)

Sorry there are no passes over London.